Theta_e
288 288 287 286 286 287 287 285 285 286 287 287 287 287 287 287 286 287 288 289 288 288 288 289 290 290 289 288 287 287 287 288
286 288 287 285 285 285 286 285 284 285 286 285 285 285 285 284 285 285 286 286 287 287 286 287 287 287 287 287 287 286 286 286
285 286 287 285 283 284 284 284 284 285 285 285 284 284 282 282 283 283 284 284 285 286 285 285 286 285 286 286 287 285 285 285
283 284 284 285 284 283 283 284 284 283 282 282 282 282 281 280 281 282 282 282 282 283 283 283 284 284 285 285 285 285 285 285
281 283 283 283 283 283 283 283 283 282 282 281 281 281 281 280 280 280 281 280 280 281 282 282 283 283 284 284 285 285 285 285
280 280 282 282 282 283 283 282 281 280 280 279 280 280 279 279 279 279 280 280 279 280 280 281 281 283 283 283 284 283 284 284
281 281 281 282 282 283 283 281 280 278 279 280 280 280 279 279 278 278 278 278 278 278 279 279 280 284 286 286 283 284 284 283
281 281 281 281 282 281 282 280 279 280 279 279 279 278 279 279 278 277 276 276 277 277 277 277 279 283 284 286 283 283 283 284
281 281 281 281 281 280 280 279 279 278 277 277 278 278 279 278 278 277 276 275 275 275 276 276 277 282 283 284 282 282 282 283
281 282 281 279 279 278 278 278 277 277 277 277 276 275 276 276 276 276 276 275 274 275 274 274 275 279 280 281 279 280 281 282
280 280 278 278 277 276 275 275 274 275 275 274 274 273 272 273 274 275 274 274 274 273 273 273 272 276 278 278 277 277 279 280
277 277 276 276 274 273 272 271 272 271 270 270 269 268 268 268 269 269 269 270 270 270 270 270 271 271 276 277 276 276 277 278
274 274 274 273 271 269 268 270 269 267 266 264 263 263 264 263 263 264 265 265 265 266 266 268 270 272 274 276 277 278 277 277
270 270 270 270 268 266 267 267 265 262 261 261 261 261 262 261 261 261 261 261 262 263 263 264 267 268 272 274 275 277 276 278
267 267 266 266 267 263 265 264 261 259 260 260 260 260 260 261 261 260 260 260 260 260 261 262 263 264 266 268 269 271 274 278
266 266 264 265 263 261 263 261 259 259 260 259 260 259 260 261 260 261 262 263 262 263 263 263 263 265 269 269 268 269 271 273
264 263 262 261 261 260 259 259 258 259 259 259 259 259 260 259 260 265 267 268 269 270 269 267 271 272 272 273 273 274 275 272
261 260 259 259 259 259 259 258 258 258 259 259 259 258 258 259 259 258 262 267 268 269 270 270 271 271 272 272 273 274 274 270
258 257 256 256 257 259 258 259 260 259 259 258 258 258 259 259 260 260 260 259 261 266 267 269 271 272 272 273 273 268 270 269
255 255 255 255 258 259 260 260 259 259 259 259 259 259 260 260 261 261 261 261 261 263 266 267 269 271 272 273 269 268 267 268
Wind_Speed
5 7 6 6 5 7 6 6 6 7 8 7 6 6 6 5 7 7 8 9 9 8 8 8 7 6 6 5 6 7 6 6
5 6 7 6 6 5 5 6 6 6 5 4 5 6 7 9 8 7 6 7 8 9 8 8 7 7 7 7 7 8 8 7
5 4 4 4 4 4 4 3 2 3 4 5 3 5 6 7 7 8 10 8 6 6 6 7 8 7 7 8 7 8 9 8
4 3 4 4 3 3 2 0 1 1 3 5 4 4 3 4 4 5 6 6 7 8 8 8 6 7 8 7 8 8 9 10
2 3 3 3 4 4 5 5 5 4 5 6 5 5 4 3 5 6 6 7 7 8 7 7 8 9 8 8 10 10 11 11
3 2 4 4 4 4 3 4 3 5 7 8 7 7 7 6 6 6 6 6 6 8 9 8 7 7 8 9 9 10 11 11
5 5 6 6 5 6 5 5 3 5 6 6 7 8 8 6 6 6 8 7 7 10 9 11 9 16 20 17 10 11 12 13
6 6 6 4 3 5 6 4 5 7 8 10 9 10 12 11 10 9 9 8 11 11 10 13 13 21 25 23 12 12 13 14
4 5 4 2 3 4 6 6 6 7 7 8 8 10 11 11 14 14 11 12 12 13 13 14 15 26 26 26 16 14 15 15
3 3 5 6 5 4 4 5 6 9 9 8 7 10 13 15 17 16 14 15 16 15 17 16 17 27 29 26 16 16 18 15
6 5 6 5 5 4 6 7 8 9 11 11 11 12 14 16 17 15 14 16 15 19 18 21 21 31 34 29 14 17 15 17
6 5 5 5 5 7 7 8 9 10 12 13 13 14 15 17 15 16 18 19 19 20 20 22 21 24 37 37 19 16 16 15
3 2 3 4 5 9 9 10 11 11 12 13 13 11 12 15 15 16 16 18 18 19 19 16 19 27 31 36 35 31 19 19
3 6 4 4 4 9 12 13 13 12 13 13 13 12 13 14 15 13 13 13 14 14 15 15 14 15 31 36 35 34 24 17
4 6 7 3 6 5 11 12 11 13 14 13 13 14 13 11 11 12 12 12 13 14 15 15 15 14 14 15 15 24 20 25
4 7 9 8 9 7 10 9 12 13 13 13 11 13 13 13 12 12 13 15 15 14 15 15 15 13 25 24 15 13 20 22
5 7 9 9 10 10 6 7 11 13 12 12 12 12 12 13 13 22 29 32 33 35 29 17 31 38 37 36 35 35 35 19
5 7 9 9 11 10 9 7 11 13 14 12 13 12 12 12 13 15 17 31 33 34 34 35 34 36 35 34 34 33 30 16
5 7 7 8 11 9 7 10 13 14 17 12 11 11 12 13 14 14 15 16 15 24 27 30 33 33 32 31 27 14 14 12
6 7 7 7 11 7 9 12 14 13 10 10 11 11 13 13 13 13 14 15 15 15 22 21 26 28 29 29 12 12 11 11
Wind_Direction
108 104 86 73 60 44 56 33 19 10 359 7 12 5 1 27 30 9 352 349 338 339 335 327 306 263 244 242 236 232 235 233
57 50 66 51 55 71 57 44 9 357 336 354 1 353 356 22 18 5 343 336 340 339 333 322 315 296 267 250 241 238 234 233
73 67 57 56 35 29 27 76 8 334 326 330 15 360 16 19 357 343 337 335 319 321 318 317 310 303 290 279 265 242 244 236
78 57 51 29 42 16 348 271 159 12 323 319 343 356 6 10 330 303 294 298 313 324 328 323 301 294 292 280 272 259 249 244
44 22 6 4 357 352 344 344 341 357 335 329 323 324 323 307 293 293 296 302 308 312 302 294 300 299 289 280 275 270 264 256
186 279 290 296 299 298 294 312 326 332 322 309 317 319 313 307 294 291 294 286 293 294 292 291 287 278 283 282 284 280 277 264
197 220 239 241 261 281 285 296 319 310 289 293 306 304 303 289 277 277 285 280 282 287 278 284 279 283 290 288 275 267 267 267
293 244 230 221 259 289 285 308 308 291 290 300 306 303 305 303 298 289 289 290 287 280 274 277 274 281 286 284 276 265 259 259
287 299 270 78 18 5 348 326 290 281 277 279 287 288 288 289 289 289 290 289 286 284 282 281 279 280 281 281 275 270 264 256
280 18 44 44 16 348 314 294 292 296 295 297 298 299 298 292 289 286 284 285 287 284 287 283 280 282 283 282 277 267 264 259
31 44 44 18 13 348 314 313 308 314 321 320 316 309 305 303 300 297 292 285 285 283 281 283 283 284 284 283 276 269 263 259
31 26 22 16 356 323 320 312 322 326 316 312 314 311 304 300 299 298 295 291 287 283 282 280 277 281 283 281 274 264 264 260
20 28 9 1 353 321 317 322 319 313 312 308 304 300 297 295 294 291 290 286 285 284 281 277 278 275 280 284 280 274 264 255
23 340 354 360 352 322 320 321 318 314 306 301 298 296 293 293 293 292 287 283 283 282 285 287 286 284 287 287 288 284 278 270
16 328 318 331 327 303 313 315 312 306 304 303 300 298 292 286 287 288 288 286 285 285 282 281 279 280 282 283 294 300 303 276
332 312 311 319 315 310 310 309 305 304 303 304 299 297 297 288 286 281 276 276 279 275 276 280 278 273 276 276 270 265 277 285
317 311 305 311 310 309 299 296 297 301 306 301 300 298 296 294 291 285 289 292 291 291 289 285 284 291 290 287 283 278 276 270
306 305 304 306 303 302 296 290 297 299 299 299 298 296 295 295 295 296 293 292 293 293 293 292 292 294 292 288 285 281 273 260
302 290 288 291 288 288 293 297 303 299 295 294 294 294 293 293 293 294 296 298 297 296 294 292 293 297 297 293 291 281 272 273
289 281 283 284 294 301 305 310 308 298 295 296 296 293 292 293 294 294 294 294 293 294 296 296 294 296 294 290 280 267 251 247